Time,TemperatureF,DewpointF,PressureIn,WindDirection,WindDirectionDegrees,WindSpeedMPH,WindSpeedGustMPH,Humidity,HourlyPrecipIn,Conditions,Clouds,dailyrainin,SoftwareType,DateUTC
2013-03-26 00:03:00,36.3,29.5,29.62,North,8,1.0,2.0,76,0.00,,,0.00,WUHU216DAVISWMX,2013-03-26 04:03:00,
2013-03-26 00:08:00,36.3,29.8,29.63,North,8,0.0,2.0,77,0.00,,,0.00,WUHU216DAVISWMX,2013-03-26 04:08:00,
2013-03-26 00:13:00,36.3,29.5,29.63,North,8,1.0,2.0,76,0.00,,,0.00,WUHU216DAVISWMX,2013-03-26 04:13:00,
2013-03-26 00:18:00,36.3,29.5,29.63,North,8,1.0,2.0,76,0.00,,,0.00,WUHU216DAVISWMX,2013-03-26 04:18:00,
2013-03-26 00:23:00,36.3,29.5,29.62,North,8,2.0,2.0,76,0.00,,,0.00,WUHU216DAVISWMX,2013-03-26 04:23:00,
2013-03-26 00:28:00,36.3,29.5,29.62,NNW,340,1.0,4.0,76,0.00,,,0.00,WUHU216DAVISWMX,2013-03-26 04:28:00,
2013-03-26 00:33:00,36.2,29.4,29.62,NNW,327,1.0,4.0,76,0.00,,,0.00,WUHU216DAVISWMX,2013-03-26 04:33:00,
2013-03-26 00:38:00,36.3,29.2,29.63,NNW,328,0.0,3.0,75,0.00,,,0.00,WUHU216DAVISWMX,2013-03-26 04:38:00,
2013-03-26 00:43:00,36.2,29.4,29.63,NNW,328,0.0,1.0,76,0.00,,,0.00,WUHU216DAVISWMX,2013-03-26 04:43:00,
2013-03-26 00:48:00,36.3,29.2,29.63,North,7,0.0,3.0,75,0.00,,,0.00,WUHU216DAVISWMX,2013-03-26 04:48:00,
2013-03-26 00:53:00,36.3,29.5,29.63,NNW,329,0.0,3.0,76,0.00,,,0.00,WUHU216DAVISWMX,2013-03-26 04:53:00,
2013-03-26 00:58:00,36.3,29.2,29.63,North,0,0.0,2.0,75,0.00,,,0.00,WUHU216DAVISWMX,2013-03-26 04:58:00,
2013-03-26 01:03:00,36.3,29.2,29.63,NNE,27,0.0,4.0,75,0.00,,,0.00,WUHU216DAVISWMX,2013-03-26 05:03:00,
2013-03-26 01:08:00,36.3,29.2,29.63,North,0,0.0,4.0,75,0.00,,,0.00,WUHU216DAVISWMX,2013-03-26 05:08:00,
2013-03-26 01:13:00,36.4,29.3,29.63,North,0,1.0,2.0,75,0.00,,,0.00,WUHU216DAVISWMX,2013-03-26 05:13:00,
2013-03-26 01:18:00,36.4,29.3,29.63,NW,312,2.0,4.0,75,0.00,,,0.00,WUHU216DAVISWMX,2013-03-26 05:18:00,
2013-03-26 01:23:00,36.4,29.0,29.63,North,4,2.0,4.0,74,0.00,,,0.00,WUHU216DAVISWMX,2013-03-26 05:23:00,
2013-03-26 01:28:00,36.5,29.1,29.64,North,11,1.0,4.0,74,0.00,,,0.00,WUHU216DAVISWMX,2013-03-26 05:28:00,
2013-03-26 01:33:00,36.6,29.1,29.64,North,0,0.0,4.0,74,0.00,,,0.00,WUHU216DAVISWMX,2013-03-26 05:33:00,
2013-03-26 01:38:00,36.5,29.1,29.63,North,0,2.0,4.0,74,0.00,,,0.00,WUHU216DAVISWMX,2013-03-26 05:38:00,
2013-03-26 01:43:00,36.5,29.1,29.63,North,10,0.0,3.0,74,0.00,,,0.00,WUHU216DAVISWMX,2013-03-26 05:43:00,
2013-03-26 01:48:00,36.5,29.4,29.64,North,10,1.0,3.0,75,0.00,,,0.00,WUHU216DAVISWMX,2013-03-26 05:48:00,
2013-03-26 01:53:00,36.4,29.6,29.64,North,2,2.0,2.0,76,0.00,,,0.00,WUHU216DAVISWMX,2013-03-26 05:53:00,
2013-03-26 01:58:00,36.4,29.3,29.64,NE,34,1.0,3.0,75,0.00,,,0.00,WUHU216DAVISWMX,2013-03-26 05:58:00,
2013-03-26 02:03:00,36.3,29.5,29.64,NNE,20,0.0,3.0,76,0.00,,,0.00,WUHU216DAVISWMX,2013-03-26 06:03:00,
2013-03-26 02:08:00,36.3,29.2,29.64,NNE,12,0.0,3.0,75,0.00,,,0.00,WUHU216DAVISWMX,2013-03-26 06:08:00,
2013-03-26 02:13:00,36.3,29.5,29.63,NNE,12,2.0,3.0,76,0.00,,,0.00,WUHU216DAVISWMX,2013-03-26 06:13:00,
2013-03-26 02:18:00,36.2,29.4,29.63,NNE,12,0.0,2.0,76,0.00,,,0.00,WUHU216DAVISWMX,2013-03-26 06:18:00,
2013-03-26 02:23:00,36.2,29.4,29.64,NW,314,1.0,3.0,76,0.00,,,0.00,WUHU216DAVISWMX,2013-03-26 06:23:00,
2013-03-26 02:28:00,36.2,29.1,29.63,NNE,25,1.0,3.0,75,0.00,,,0.00,WUHU216DAVISWMX,2013-03-26 06:28:00,
2013-03-26 02:33:00,36.2,29.4,29.64,North,0,1.0,4.0,76,0.00,,,0.00,WUHU216DAVISWMX,2013-03-26 06:33:00,
2013-03-26 02:38:00,36.1,29.0,29.63,North,0,1.0,4.0,75,0.00,,,0.00,WUHU216DAVISWMX,2013-03-26 06:38:00,
2013-03-26 02:43:00,36.2,29.4,29.64,North,0,0.0,2.0,76,0.00,,,0.00,WUHU216DAVISWMX,2013-03-26 06:43:00,
2013-03-26 02:48:00,36.1,29.0,29.63,North,4,3.0,4.0,75,0.00,,,0.00,WUHU216DAVISWMX,2013-03-26 06:48:00,
2013-03-26 02:53:00,36.1,28.7,29.64,North,4,0.0,4.0,74,0.00,,,0.00,WUHU216DAVISWMX,2013-03-26 06:53:00,
2013-03-26 02:58:00,36.0,28.9,29.64,North,4,0.0,1.0,75,0.00,,,0.00,WUHU216DAVISWMX,2013-03-26 06:58:00,
2013-03-26 03:03:00,36.1,29.0,29.64,North,4,0.0,2.0,75,0.00,,,0.00,WUHU216DAVISWMX,2013-03-26 07:03:00,
2013-03-26 03:08:00,36.0,28.6,29.64,North,4,0.0,2.0,74,0.00,,,0.00,WUHU216DAVISWMX,2013-03-26 07:08:00,
2013-03-26 03:13:00,36.0,28.9,29.64,North,4,1.0,1.0,75,0.00,,,0.00,WUHU216DAVISWMX,2013-03-26 07:13:00,
2013-03-26 03:19:00,35.9,28.8,29.64,NNE,30,0.0,3.0,75,0.00,,,0.00,WUHU216DAVISWMX,2013-03-26 07:19:00,
2013-03-26 03:29:00,35.8,29.0,29.64,NNE,30,1.0,1.0,76,0.00,,,0.00,WUHU216DAVISWMX,2013-03-26 07:29:00,
2013-03-26 03:34:00,35.7,28.9,29.65,North,0,0.0,3.0,76,0.00,,,0.00,WUHU216DAVISWMX,2013-03-26 07:34:00,
2013-03-26 03:39:00,35.6,28.8,29.65,North,0,0.0,3.0,76,0.00,,,0.00,WUHU216DAVISWMX,2013-03-26 07:39:00,
2013-03-26 03:44:00,35.4,28.6,29.65,North,0,0.0,1.0,76,0.00,,,0.00,WUHU216DAVISWMX,2013-03-26 07:44:00,
2013-03-26 03:49:00,35.3,28.5,29.65,North,0,0.0,2.0,76,0.00,,,0.00,WUHU216DAVISWMX,2013-03-26 07:49:00,
2013-03-26 03:54:00,35.2,28.7,29.65,North,0,0.0,2.0,77,0.00,,,0.00,WUHU216DAVISWMX,2013-03-26 07:54:00,
2013-03-26 03:59:00,35.3,28.8,29.65,North,0,0.0,2.0,77,0.00,,,0.00,WUHU216DAVISWMX,2013-03-26 07:59:00,
2013-03-26 04:04:00,35.1,28.6,29.65,NW,318,1.0,2.0,77,0.00,,,0.00,WUHU216DAVISWMX,2013-03-26 08:04:00,
2013-03-26 04:09:00,35.1,28.6,29.65,NW,318,0.0,2.0,77,0.00,,,0.00,WUHU216DAVISWMX,2013-03-26 08:09:00,
2013-03-26 04:14:00,35.1,28.6,29.65,North,0,0.0,2.0,77,0.00,,,0.00,WUHU216DAVISWMX,2013-03-26 08:14:00,
2013-03-26 04:19:00,35.0,28.6,29.66,North,0,1.0,2.0,77,0.00,,,0.00,WUHU216DAVISWMX,2013-03-26 08:19:00,
2013-03-26 04:24:00,35.0,28.9,29.66,North,0,1.0,2.0,78,0.00,,,0.00,WUHU216DAVISWMX,2013-03-26 08:24:00,
2013-03-26 04:29:00,35.0,28.9,29.65,North,350,0.0,2.0,78,0.00,,,0.00,WUHU216DAVISWMX,2013-03-26 08:29:00,
2013-03-26 04:34:00,35.0,28.9,29.66,North,350,0.0,2.0,78,0.00,,,0.00,WUHU216DAVISWMX,2013-03-26 08:34:00,
2013-03-26 04:39:00,35.0,28.9,29.66,North,0,0.0,3.0,78,0.00,,,0.00,WUHU216DAVISWMX,2013-03-26 08:39:00,
2013-03-26 04:44:00,35.0,28.9,29.66,North,0,0.0,3.0,78,0.00,,,0.00,WUHU216DAVISWMX,2013-03-26 08:44:00,
2013-03-26 04:49:00,34.9,28.8,29.66,North,0,0.0,1.0,78,0.00,,,0.00,WUHU216DAVISWMX,2013-03-26 08:49:00,
2013-03-26 04:54:00,34.9,29.1,29.66,North,0,0.0,1.0,79,0.00,,,0.00,WUHU216DAVISWMX,2013-03-26 08:54:00,
2013-03-26 04:59:00,34.8,29.0,29.66,North,0,0.0,2.0,79,0.00,,,0.00,WUHU216DAVISWMX,2013-03-26 08:59:00,
2013-03-26 05:04:00,34.8,29.3,29.66,North,0,2.0,2.0,80,0.00,,,0.00,WUHU216DAVISWMX,2013-03-26 09:04:00,
2013-03-26 05:09:00,34.9,29.4,29.67,NNW,328,0.0,2.0,80,0.00,,,0.00,WUHU216DAVISWMX,2013-03-26 09:09:00,
2013-03-26 05:14:00,34.8,29.3,29.67,NNW,328,0.0,2.0,80,0.00,,,0.00,WUHU216DAVISWMX,2013-03-26 09:14:00,
2013-03-26 05:19:00,34.8,29.3,29.67,NNW,328,0.0,1.0,80,0.00,,,0.00,WUHU216DAVISWMX,2013-03-26 09:19:00,
2013-03-26 05:24:00,34.8,29.3,29.67,NNW,328,0.0,1.0,80,0.00,,,0.00,WUHU216DAVISWMX,2013-03-26 09:24:00,
2013-03-26 05:29:00,34.8,29.3,29.67,NNW,328,0.0,1.0,80,0.00,,,0.00,WUHU216DAVISWMX,2013-03-26 09:29:00,
2013-03-26 05:34:00,34.8,29.3,29.68,NNW,328,0.0,1.0,80,0.00,,,0.00,WUHU216DAVISWMX,2013-03-26 09:34:00,
2013-03-26 05:39:00,34.8,29.3,29.68,NNW,328,0.0,2.0,80,0.00,,,0.00,WUHU216DAVISWMX,2013-03-26 09:39:00,
2013-03-26 05:44:00,34.8,29.6,29.68,NNW,328,0.0,2.0,81,0.00,,,0.00,WUHU216DAVISWMX,2013-03-26 09:44:00,
2013-03-26 05:49:00,34.8,29.3,29.68,NNW,328,0.0,1.0,80,0.00,,,0.00,WUHU216DAVISWMX,2013-03-26 09:49:00,
2013-03-26 05:54:00,34.8,29.3,29.68,NNW,328,0.0,2.0,80,0.00,,,0.00,WUHU216DAVISWMX,2013-03-26 09:54:00,
2013-03-26 05:59:00,34.8,29.3,29.68,NNW,328,0.0,2.0,80,0.00,,,0.00,WUHU216DAVISWMX,2013-03-26 09:59:00,
2013-03-26 06:04:00,34.8,29.3,29.69,NNW,328,0.0,2.0,80,0.00,,,0.00,WUHU216DAVISWMX,2013-03-26 10:04:00,
2013-03-26 06:09:00,34.7,29.5,29.69,NNW,328,1.0,2.0,81,0.00,,,0.00,WUHU216DAVISWMX,2013-03-26 10:09:00,
2013-03-26 06:14:00,34.7,29.5,29.69,NNW,328,0.0,1.0,81,0.00,,,0.00,WUHU216DAVISWMX,2013-03-26 10:14:00,
2013-03-26 06:19:00,34.6,29.4,29.69,NNW,328,0.0,0.0,81,0.00,,,0.00,WUHU216DAVISWMX,2013-03-26 10:19:00,
2013-03-26 06:24:00,34.6,29.7,29.69,NNW,328,0.0,0.0,82,0.00,,,0.00,WUHU216DAVISWMX,2013-03-26 10:24:00,
2013-03-26 06:29:00,34.6,29.7,29.69,NNW,328,0.0,0.0,82,0.00,,,0.00,WUHU216DAVISWMX,2013-03-26 10:29:00,
2013-03-26 06:34:00,34.5,29.6,29.69,NNW,328,0.0,2.0,82,0.00,,,0.00,WUHU216DAVISWMX,2013-03-26 10:34:00,
2013-03-26 06:39:00,34.5,29.6,29.69,NNW,328,0.0,2.0,82,0.00,,,0.00,WUHU216DAVISWMX,2013-03-26 10:39:00,
2013-03-26 06:44:00,34.5,29.6,29.70,NNW,328,0.0,1.0,82,0.00,,,0.00,WUHU216DAVISWMX,2013-03-26 10:44:00,
2013-03-26 06:49:00,34.5,29.6,29.70,NNW,328,0.0,0.0,82,0.00,,,0.00,WUHU216DAVISWMX,2013-03-26 10:49:00,
2013-03-26 06:54:00,34.5,29.9,29.70,NNW,328,0.0,0.0,83,0.00,,,0.00,WUHU216DAVISWMX,2013-03-26 10:54:00,
2013-03-26 06:59:00,34.5,29.9,29.71,NNW,328,0.0,0.0,83,0.00,,,0.00,WUHU216DAVISWMX,2013-03-26 10:59:00,
2013-03-26 07:04:00,34.5,29.9,29.70,NNW,328,0.0,0.0,83,0.00,,,0.00,WUHU216DAVISWMX,2013-03-26 11:04:00,
2013-03-26 07:09:00,34.6,30.0,29.71,NNW,328,0.0,0.0,83,0.00,,,0.00,WUHU216DAVISWMX,2013-03-26 11:09:00,
2013-03-26 07:14:00,34.5,29.9,29.71,NNW,328,0.0,0.0,83,0.00,,,0.00,WUHU216DAVISWMX,2013-03-26 11:14:00,
2013-03-26 07:19:00,34.5,29.9,29.71,NNW,328,0.0,0.0,83,0.00,,,0.00,WUHU216DAVISWMX,2013-03-26 11:19:00,
2013-03-26 07:24:00,34.5,30.1,29.71,NNW,328,0.0,0.0,84,0.00,,,0.00,WUHU216DAVISWMX,2013-03-26 11:24:00,
2013-03-26 07:29:00,34.5,30.1,29.71,NNW,328,0.0,0.0,84,0.00,,,0.00,WUHU216DAVISWMX,2013-03-26 11:29:00,
2013-03-26 07:34:00,34.6,30.0,29.72,NNW,328,0.0,0.0,83,0.00,,,0.00,WUHU216DAVISWMX,2013-03-26 11:34:00,
2013-03-26 07:39:00,34.6,30.0,29.72,NNW,328,0.0,0.0,83,0.00,,,0.00,WUHU216DAVISWMX,2013-03-26 11:39:00,
2013-03-26 07:44:00,34.6,30.0,29.72,NNW,328,0.0,0.0,83,0.00,,,0.00,WUHU216DAVISWMX,2013-03-26 11:44:00,
2013-03-26 07:49:00,34.6,30.2,29.72,NNW,328,0.0,0.0,84,0.00,,,0.00,WUHU216DAVISWMX,2013-03-26 11:49:00,
2013-03-26 07:54:00,34.6,30.2,29.72,NNW,328,0.0,0.0,84,0.00,,,0.00,WUHU216DAVISWMX,2013-03-26 11:54:00,
2013-03-26 07:59:00,34.7,30.3,29.72,NNW,328,0.0,0.0,84,0.00,,,0.00,WUHU216DAVISWMX,2013-03-26 11:59:00,
2013-03-26 08:04:00,34.7,30.3,29.73,NNW,328,0.0,0.0,84,0.00,,,0.00,WUHU216DAVISWMX,2013-03-26 12:04:00,
2013-03-26 08:09:00,34.8,30.4,29.73,NNW,328,0.0,0.0,84,0.00,,,0.00,WUHU216DAVISWMX,2013-03-26 12:09:00,
2013-03-26 08:14:00,34.8,30.4,29.73,NNW,328,0.0,0.0,84,0.00,,,0.00,WUHU216DAVISWMX,2013-03-26 12:14:00,
2013-03-26 08:19:00,34.8,30.4,29.73,NNW,328,0.0,0.0,84,0.00,,,0.00,WUHU216DAVISWMX,2013-03-26 12:19:00,
2013-03-26 08:24:00,34.9,30.5,29.73,NNW,328,0.0,0.0,84,0.00,,,0.00,WUHU216DAVISWMX,2013-03-26 12:24:00,
2013-03-26 08:29:00,34.9,31.1,29.73,NNW,328,0.0,0.0,86,0.00,,,0.00,WUHU216DAVISWMX,2013-03-26 12:29:00,
2013-03-26 08:34:00,34.9,31.1,29.73,NNW,328,0.0,0.0,86,0.00,,,0.00,WUHU216DAVISWMX,2013-03-26 12:34:00,
2013-03-26 08:39:00,35.0,31.2,29.73,NNW,328,0.0,0.0,86,0.00,,,0.00,WUHU216DAVISWMX,2013-03-26 12:39:00,
2013-03-26 08:44:00,35.0,30.9,29.73,NNW,328,0.0,0.0,85,0.00,,,0.00,WUHU216DAVISWMX,2013-03-26 12:44:00,
2013-03-26 08:49:00,35.1,31.0,29.73,NNW,328,0.0,0.0,85,0.00,,,0.00,WUHU216DAVISWMX,2013-03-26 12:49:00,
2013-03-26 08:54:00,35.2,31.1,29.74,NNW,328,0.0,0.0,85,0.00,,,0.00,WUHU216DAVISWMX,2013-03-26 12:54:00,
2013-03-26 08:59:00,35.3,31.2,29.74,NNW,328,0.0,0.0,85,0.00,,,0.00,WUHU216DAVISWMX,2013-03-26 12:59:00,
2013-03-26 09:04:00,35.5,31.4,29.74,NNW,328,0.0,0.0,85,0.00,,,0.00,WUHU216DAVISWMX,2013-03-26 13:04:00,
2013-03-26 09:09:00,35.7,31.6,29.73,NNW,328,0.0,0.0,85,0.00,,,0.00,WUHU216DAVISWMX,2013-03-26 13:09:00,
2013-03-26 09:14:00,35.9,31.5,29.74,NNW,328,0.0,0.0,84,0.00,,,0.00,WUHU216DAVISWMX,2013-03-26 13:14:00,
2013-03-26 09:19:00,36.1,31.4,29.74,NNW,328,2.0,3.0,83,0.00,,,0.00,WUHU216DAVISWMX,2013-03-26 13:19:00,
2013-03-26 09:24:00,36.4,31.1,29.74,NNW,328,0.0,3.0,81,0.00,,,0.00,WUHU216DAVISWMX,2013-03-26 13:24:00,
2013-03-26 09:29:00,36.8,31.8,29.74,NNW,327,1.0,3.0,82,0.00,,,0.00,WUHU216DAVISWMX,2013-03-26 13:29:00,
2013-03-26 09:34:00,37.1,31.5,29.74,NW,315,1.0,3.0,80,0.00,,,0.00,WUHU216DAVISWMX,2013-03-26 13:34:00,
2013-03-26 09:39:00,37.4,31.5,29.74,NW,319,1.0,3.0,79,0.00,,,0.00,WUHU216DAVISWMX,2013-03-26 13:39:00,
2013-03-26 09:44:00,37.6,32.0,29.74,NW,315,0.0,3.0,80,0.00,,,0.00,WUHU216DAVISWMX,2013-03-26 13:44:00,
2013-03-26 09:49:00,38.2,32.0,29.74,NW,324,5.0,7.0,78,0.00,,,0.00,WUHU216DAVISWMX,2013-03-26 13:49:00,
2013-03-26 09:54:00,39.1,32.9,29.74,NW,314,0.0,7.0,78,0.00,,,0.00,WUHU216DAVISWMX,2013-03-26 13:54:00,
2013-03-26 09:59:00,40.1,33.8,29.74,SW,227,1.0,4.0,78,0.00,,,0.00,WUHU216DAVISWMX,2013-03-26 13:59:00,
2013-03-26 10:04:00,40.7,33.8,29.74,West,278,3.0,5.0,76,0.00,,,0.00,WUHU216DAVISWMX,2013-03-26 14:04:00,
2013-03-26 10:09:00,41.0,33.4,29.74,WSW,255,4.0,6.0,74,0.00,,,0.00,WUHU216DAVISWMX,2013-03-26 14:09:00,
2013-03-26 10:14:00,40.7,32.8,29.74,NNW,330,4.0,6.0,73,0.00,,,0.00,WUHU216DAVISWMX,2013-03-26 14:14:00,
2013-03-26 10:19:00,40.3,32.7,29.74,NNW,328,0.0,6.0,74,0.00,,,0.00,WUHU216DAVISWMX,2013-03-26 14:19:00,
2013-03-26 10:24:00,40.1,32.2,29.74,NW,319,0.0,6.0,73,0.00,,,0.00,WUHU216DAVISWMX,2013-03-26 14:24:00,
2013-03-26 10:29:00,40.1,32.5,29.74,West,264,2.0,3.0,74,0.01,,,0.01,WUHU216DAVISWMX,2013-03-26 14:29:00,
2013-03-26 10:34:00,40.1,32.5,29.74,WNW,296,0.0,4.0,74,0.01,,,0.01,WUHU216DAVISWMX,2013-03-26 14:34:00,
2013-03-26 10:39:00,40.0,32.1,29.74,WNW,299,0.0,4.0,73,0.01,,,0.01,WUHU216DAVISWMX,2013-03-26 14:39:00,
2013-03-26 10:44:00,39.8,31.9,29.74,NNW,329,1.0,4.0,73,0.01,,,0.01,WUHU216DAVISWMX,2013-03-26 14:44:00,
2013-03-26 10:49:00,39.7,31.8,29.74,NNW,329,0.0,4.0,73,0.01,,,0.01,WUHU216DAVISWMX,2013-03-26 14:49:00,
2013-03-26 10:54:00,39.6,32.1,29.74,NNW,329,0.0,1.0,74,0.01,,,0.01,WUHU216DAVISWMX,2013-03-26 14:54:00,
2013-03-26 10:59:00,39.7,32.2,29.75,NNW,329,0.0,1.0,74,0.01,,,0.01,WUHU216DAVISWMX,2013-03-26 14:59:00,
2013-03-26 11:04:00,39.8,32.2,29.74,NNW,329,2.0,2.0,74,0.01,,,0.01,WUHU216DAVISWMX,2013-03-26 15:04:00,
2013-03-26 11:09:00,40.5,32.9,29.74,NNW,329,0.0,3.0,74,0.01,,,0.01,WUHU216DAVISWMX,2013-03-26 15:09:00,
2013-03-26 11:14:00,41.1,33.2,29.74,East,96,0.0,3.0,73,0.01,,,0.01,WUHU216DAVISWMX,2013-03-26 15:14:00,
2013-03-26 11:19:00,41.4,32.8,29.74,East,97,0.0,2.0,71,0.01,,,0.01,WUHU216DAVISWMX,2013-03-26 15:19:00,
2013-03-26 11:24:00,41.6,33.0,29.75,East,97,3.0,3.0,71,0.01,,,0.01,WUHU216DAVISWMX,2013-03-26 15:24:00,
2013-03-26 11:29:00,41.7,32.4,29.74,East,84,1.0,3.0,69,0.00,,,0.01,WUHU216DAVISWMX,2013-03-26 15:29:00,
2013-03-26 11:34:00,41.7,32.0,29.75,East,84,2.0,3.0,68,0.00,,,0.01,WUHU216DAVISWMX,2013-03-26 15:34:00,
2013-03-26 11:39:00,41.7,32.4,29.75,East,84,0.0,2.0,69,0.00,,,0.01,WUHU216DAVISWMX,2013-03-26 15:39:00,
2013-03-26 11:44:00,42.0,33.0,29.74,East,84,0.0,2.0,70,0.00,,,0.01,WUHU216DAVISWMX,2013-03-26 15:44:00,
2013-03-26 11:49:00,42.6,32.9,29.75,North,0,2.0,3.0,68,0.00,,,0.01,WUHU216DAVISWMX,2013-03-26 15:49:00,
2013-03-26 11:54:00,42.6,32.5,29.74,NE,41,0.0,3.0,67,0.00,,,0.01,WUHU216DAVISWMX,2013-03-26 15:54:00,
2013-03-26 11:59:00,43.1,33.0,29.74,NE,41,0.0,3.0,67,0.00,,,0.01,WUHU216DAVISWMX,2013-03-26 15:59:00,
2013-03-26 12:04:00,43.5,32.6,29.74,NW,316,0.0,2.0,65,0.00,,,0.01,WUHU216DAVISWMX,2013-03-26 16:04:00,
2013-03-26 12:09:00,43.4,31.7,29.74,North,350,0.0,4.0,63,0.00,,,0.01,WUHU216DAVISWMX,2013-03-26 16:09:00,
2013-03-26 12:15:00,43.1,31.4,29.74,NNW,332,3.0,4.0,63,0.00,,,0.01,WUHU216DAVISWMX,2013-03-26 16:15:00,
2013-03-26 12:20:00,42.9,31.6,29.74,West,277,3.0,5.0,64,0.00,,,0.01,WUHU216DAVISWMX,2013-03-26 16:20:00,
2013-03-26 12:25:00,42.8,30.8,29.74,NNW,328,0.0,6.0,62,0.00,,,0.01,WUHU216DAVISWMX,2013-03-26 16:25:00,
2013-03-26 12:30:00,42.7,30.3,29.74,NW,317,1.0,6.0,61,0.00,,,0.01,WUHU216DAVISWMX,2013-03-26 16:30:00,
2013-03-26 12:35:00,42.9,30.0,29.74,NW,325,0.0,5.0,60,0.00,,,0.01,WUHU216DAVISWMX,2013-03-26 16:35:00,
2013-03-26 12:40:00,43.7,29.5,29.74,NNE,26,0.0,5.0,57,0.00,,,0.01,WUHU216DAVISWMX,2013-03-26 16:40:00,
2013-03-26 12:45:00,43.9,29.7,29.74,NW,325,6.0,6.0,57,0.00,,,0.01,WUHU216DAVISWMX,2013-03-26 16:45:00,
2013-03-26 12:50:00,43.8,30.5,29.74,WNW,287,5.0,6.0,59,0.00,,,0.01,WUHU216DAVISWMX,2013-03-26 16:50:00,
2013-03-26 12:55:00,43.9,30.1,29.74,NW,318,1.0,6.0,58,0.00,,,0.01,WUHU216DAVISWMX,2013-03-26 16:55:00,
2013-03-26 13:00:00,44.5,29.8,29.74,NNE,19,0.0,5.0,56,0.00,,,0.01,WUHU216DAVISWMX,2013-03-26 17:00:00,
2013-03-26 13:05:00,45.3,30.6,29.74,West,261,1.0,3.0,56,0.00,,,0.01,WUHU216DAVISWMX,2013-03-26 17:05:00,
2013-03-26 13:10:00,45.5,28.9,29.74,NE,38,0.0,4.0,52,0.00,,,0.01,WUHU216DAVISWMX,2013-03-26 17:10:00,
2013-03-26 13:15:00,45.3,29.6,29.74,NW,317,4.0,4.0,54,0.00,,,0.01,WUHU216DAVISWMX,2013-03-26 17:15:00,
2013-03-26 13:20:00,45.1,29.5,29.74,NW,317,3.0,4.0,54,0.00,,,0.01,WUHU216DAVISWMX,2013-03-26 17:20:00,
2013-03-26 13:25:00,45.0,28.4,29.74,NNW,335,5.0,9.0,52,0.00,,,0.01,WUHU216DAVISWMX,2013-03-26 17:25:00,
2013-03-26 13:30:00,44.8,28.2,29.74,NNW,329,0.0,9.0,52,0.00,,,0.01,WUHU216DAVISWMX,2013-03-26 17:30:00,
2013-03-26 13:35:00,44.8,29.6,29.74,WNW,297,2.0,8.0,55,0.00,,,0.01,WUHU216DAVISWMX,2013-03-26 17:35:00,
2013-03-26 13:40:00,44.8,29.2,29.74,NW,306,0.0,5.0,54,0.00,,,0.01,WUHU216DAVISWMX,2013-03-26 17:40:00,
2013-03-26 13:45:00,45.0,28.4,29.74,NNE,29,1.0,4.0,52,0.00,,,0.01,WUHU216DAVISWMX,2013-03-26 17:45:00,
2013-03-26 13:50:00,45.7,29.1,29.74,NW,305,2.0,4.0,52,0.00,,,0.01,WUHU216DAVISWMX,2013-03-26 17:50:00,
2013-03-26 13:55:00,45.9,29.3,29.74,SSW,208,2.0,3.0,52,0.00,,,0.01,WUHU216DAVISWMX,2013-03-26 17:55:00,
2013-03-26 14:00:00,45.8,28.7,29.74,North,2,1.0,4.0,51,0.00,,,0.01,WUHU216DAVISWMX,2013-03-26 18:00:00,
2013-03-26 14:05:00,45.6,28.5,29.74,NW,326,2.0,6.0,51,0.00,,,0.01,WUHU216DAVISWMX,2013-03-26 18:05:00,
2013-03-26 14:10:00,45.6,29.5,29.74,NW,326,0.0,6.0,53,0.00,,,0.01,WUHU216DAVISWMX,2013-03-26 18:10:00,
2013-03-26 14:15:00,45.7,29.1,29.73,NE,46,0.0,3.0,52,0.00,,,0.01,WUHU216DAVISWMX,2013-03-26 18:15:00,
2013-03-26 14:20:00,46.2,28.5,29.73,North,0,0.0,3.0,50,0.00,,,0.01,WUHU216DAVISWMX,2013-03-26 18:20:00,
2013-03-26 14:25:00,47.1,28.9,29.73,South,187,1.0,6.0,49,0.00,,,0.01,WUHU216DAVISWMX,2013-03-26 18:25:00,
2013-03-26 14:30:00,47.4,30.2,29.73,NW,322,3.0,6.0,51,0.00,,,0.01,WUHU216DAVISWMX,2013-03-26 18:30:00,
2013-03-26 14:35:00,46.9,27.6,29.73,NW,324,4.0,6.0,47,0.00,,,0.01,WUHU216DAVISWMX,2013-03-26 18:35:00,
2013-03-26 14:40:00,46.5,27.8,29.73,NNW,329,0.0,6.0,48,0.00,,,0.01,WUHU216DAVISWMX,2013-03-26 18:40:00,
2013-03-26 14:45:00,46.7,26.4,29.73,NNE,12,3.0,4.0,45,0.00,,,0.01,WUHU216DAVISWMX,2013-03-26 18:45:00,
2013-03-26 14:50:00,47.0,27.7,29.73,NW,326,5.0,6.0,47,0.00,,,0.01,WUHU216DAVISWMX,2013-03-26 18:50:00,
2013-03-26 14:55:00,47.1,28.3,29.73,NW,322,0.0,7.0,48,0.00,,,0.01,WUHU216DAVISWMX,2013-03-26 18:55:00,
2013-03-26 15:00:00,47.2,28.4,29.73,WNW,288,2.0,7.0,48,0.00,,,0.01,WUHU216DAVISWMX,2013-03-26 19:00:00,
2013-03-26 15:05:00,47.5,27.6,29.73,NNW,327,3.0,7.0,46,0.00,,,0.01,WUHU216DAVISWMX,2013-03-26 19:05:00,
2013-03-26 15:10:00,47.6,27.2,29.73,North,7,0.0,7.0,45,0.00,,,0.01,WUHU216DAVISWMX,2013-03-26 19:10:00,
2013-03-26 15:15:00,47.4,26.4,29.73,North,0,2.0,5.0,44,0.00,,,0.01,WUHU216DAVISWMX,2013-03-26 19:15:00,
2013-03-26 15:20:00,47.4,26.4,29.73,NW,325,3.0,3.0,44,0.00,,,0.01,WUHU216DAVISWMX,2013-03-26 19:20:00,
2013-03-26 15:25:00,46.8,26.5,29.73,NNW,333,5.0,11.0,45,0.00,,,0.01,WUHU216DAVISWMX,2013-03-26 19:25:00,
2013-03-26 15:30:00,46.6,27.9,29.73,NW,311,3.0,11.0,48,0.00,,,0.01,WUHU216DAVISWMX,2013-03-26 19:30:00,
2013-03-26 15:35:00,46.4,27.2,29.73,NNW,332,3.0,8.0,47,0.00,,,0.01,WUHU216DAVISWMX,2013-03-26 19:35:00,
2013-03-26 15:40:00,46.4,28.2,29.73,WNW,291,1.0,8.0,49,0.00,,,0.01,WUHU216DAVISWMX,2013-03-26 19:40:00,
2013-03-26 15:45:00,46.5,28.3,29.73,WSW,255,3.0,5.0,49,0.00,,,0.01,WUHU216DAVISWMX,2013-03-26 19:45:00,
2013-03-26 15:50:00,46.5,27.8,29.73,West,280,2.0,5.0,48,0.00,,,0.01,WUHU216DAVISWMX,2013-03-26 19:50:00,
2013-03-26 15:55:00,46.5,27.8,29.73,West,272,2.0,8.0,48,0.00,,,0.01,WUHU216DAVISWMX,2013-03-26 19:55:00,
2013-03-26 16:00:00,46.4,27.2,29.73,NNW,328,1.0,8.0,47,0.00,,,0.01,WUHU216DAVISWMX,2013-03-26 20:00:00,
2013-03-26 16:05:00,46.2,27.5,29.74,North,10,0.0,8.0,48,0.00,,,0.01,WUHU216DAVISWMX,2013-03-26 20:05:00,
2013-03-26 16:10:00,46.1,27.4,29.73,NW,309,2.0,3.0,48,0.00,,,0.01,WUHU216DAVISWMX,2013-03-26 20:10:00,
2013-03-26 16:15:00,46.2,27.5,29.74,NW,309,1.0,4.0,48,0.00,,,0.01,WUHU216DAVISWMX,2013-03-26 20:15:00,
2013-03-26 16:20:00,46.3,26.5,29.74,NW,315,2.0,6.0,46,0.00,,,0.01,WUHU216DAVISWMX,2013-03-26 20:20:00,
2013-03-26 16:25:00,46.4,26.6,29.74,NW,324,0.0,7.0,46,0.00,,,0.01,WUHU216DAVISWMX,2013-03-26 20:25:00,
2013-03-26 16:30:00,46.5,26.2,29.74,North,8,0.0,7.0,45,0.00,,,0.01,WUHU216DAVISWMX,2013-03-26 20:30:00,
2013-03-26 16:35:00,46.7,26.9,29.73,NNW,338,2.0,3.0,46,0.00,,,0.01,WUHU216DAVISWMX,2013-03-26 20:35:00,
2013-03-26 16:40:00,46.7,26.9,29.73,NNW,327,3.0,5.0,46,0.00,,,0.01,WUHU216DAVISWMX,2013-03-26 20:40:00,
2013-03-26 16:45:00,47.0,27.2,29.74,North,11,5.0,5.0,46,0.00,,,0.01,WUHU216DAVISWMX,2013-03-26 20:45:00,
2013-03-26 16:50:00,46.9,26.0,29.74,NNW,329,8.0,9.0,44,0.00,,,0.01,WUHU216DAVISWMX,2013-03-26 20:50:00,
2013-03-26 16:55:00,46.6,25.7,29.74,NNW,331,6.0,9.0,44,0.00,,,0.01,WUHU216DAVISWMX,2013-03-26 20:55:00,
2013-03-26 17:00:00,46.5,25.6,29.74,NW,325,2.0,9.0,44,0.00,,,0.01,WUHU216DAVISWMX,2013-03-26 21:00:00,
2013-03-26 17:05:00,46.4,26.6,29.74,NNW,331,0.0,6.0,46,0.00,,,0.01,WUHU216DAVISWMX,2013-03-26 21:05:00,
2013-03-26 17:10:00,46.5,26.7,29.74,NNW,331,0.0,3.0,46,0.00,,,0.01,WUHU216DAVISWMX,2013-03-26 21:10:00,
2013-03-26 17:15:00,46.5,25.6,29.74,NW,319,5.0,8.0,44,0.00,,,0.01,WUHU216DAVISWMX,2013-03-26 21:15:00,
2013-03-26 17:20:00,46.6,25.7,29.75,NNE,22,0.0,8.0,44,0.00,,,0.01,WUHU216DAVISWMX,2013-03-26 21:20:00,
2013-03-26 17:25:00,46.5,25.6,29.75,NNE,12,4.0,7.0,44,0.00,,,0.01,WUHU216DAVISWMX,2013-03-26 21:25:00,
2013-03-26 17:30:00,46.4,25.0,29.75,North,9,1.0,4.0,43,0.00,,,0.01,WUHU216DAVISWMX,2013-03-26 21:30:00,
2013-03-26 17:35:00,46.2,26.4,29.75,NW,315,1.0,4.0,46,0.00,,,0.01,WUHU216DAVISWMX,2013-03-26 21:35:00,
2013-03-26 17:40:00,46.1,26.4,29.76,NNW,333,2.0,6.0,46,0.00,,,0.01,WUHU216DAVISWMX,2013-03-26 21:40:00,
2013-03-26 17:45:00,46.0,24.6,29.76,NW,317,5.0,6.0,43,0.00,,,0.01,WUHU216DAVISWMX,2013-03-26 21:45:00,
2013-03-26 17:50:00,45.9,26.2,29.76,NNW,334,2.0,6.0,46,0.00,,,0.01,WUHU216DAVISWMX,2013-03-26 21:50:00,
2013-03-26 17:55:00,45.8,26.1,29.76,NNW,334,0.0,4.0,46,0.00,,,0.01,WUHU216DAVISWMX,2013-03-26 21:55:00,
2013-03-26 18:00:00,45.8,26.1,29.76,NW,316,0.0,5.0,46,0.00,,,0.01,WUHU216DAVISWMX,2013-03-26 22:00:00,
2013-03-26 18:05:00,45.6,26.4,29.76,NW,324,2.0,5.0,47,0.00,,,0.01,WUHU216DAVISWMX,2013-03-26 22:05:00,
2013-03-26 18:10:00,45.6,25.9,29.77,NNW,329,1.0,6.0,46,0.00,,,0.01,WUHU216DAVISWMX,2013-03-26 22:10:00,
2013-03-26 18:15:00,45.4,25.7,29.77,NNW,330,4.0,6.0,46,0.00,,,0.01,WUHU216DAVISWMX,2013-03-26 22:15:00,
2013-03-26 18:20:00,45.2,25.5,29.77,NW,326,1.0,6.0,46,0.00,,,0.01,WUHU216DAVISWMX,2013-03-26 22:20:00,
2013-03-26 18:25:00,45.1,26.5,29.77,NW,326,0.0,6.0,48,0.00,,,0.01,WUHU216DAVISWMX,2013-03-26 22:25:00,
2013-03-26 18:30:00,44.8,26.2,29.77,NW,326,1.0,5.0,48,0.00,,,0.01,WUHU216DAVISWMX,2013-03-26 22:30:00,
2013-03-26 18:35:00,44.6,27.1,29.78,NW,326,1.0,1.0,50,0.00,,,0.01,WUHU216DAVISWMX,2013-03-26 22:35:00,
2013-03-26 18:40:00,44.3,26.8,29.78,NW,326,1.0,4.0,50,0.00,,,0.01,WUHU216DAVISWMX,2013-03-26 22:40:00,
2013-03-26 18:45:00,44.0,26.5,29.78,NNW,328,1.0,6.0,50,0.00,,,0.01,WUHU216DAVISWMX,2013-03-26 22:45:00,
2013-03-26 18:50:00,43.8,26.3,29.78,NNW,335,0.0,6.0,50,0.00,,,0.01,WUHU216DAVISWMX,2013-03-26 22:50:00,
2013-03-26 18:55:00,43.6,26.6,29.79,NW,319,1.0,5.0,51,0.00,,,0.01,WUHU216DAVISWMX,2013-03-26 22:55:00,
2013-03-26 19:00:00,43.3,27.8,29.79,NW,319,0.0,3.0,54,0.00,,,0.01,WUHU216DAVISWMX,2013-03-26 23:00:00,
2013-03-26 19:05:00,43.0,27.0,29.79,NW,319,1.0,2.0,53,0.00,,,0.01,WUHU216DAVISWMX,2013-03-26 23:05:00,
2013-03-26 19:10:00,42.8,27.3,29.79,NW,319,0.0,2.0,54,0.00,,,0.01,WUHU216DAVISWMX,2013-03-26 23:10:00,
2013-03-26 19:15:00,42.5,27.0,29.79,NW,320,2.0,3.0,54,0.00,,,0.01,WUHU216DAVISWMX,2013-03-26 23:15:00,
2013-03-26 19:20:00,42.4,26.9,29.79,NW,319,0.0,3.0,54,0.00,,,0.01,WUHU216DAVISWMX,2013-03-26 23:20:00,
2013-03-26 19:25:00,42.1,26.7,29.79,NW,320,0.0,2.0,54,0.00,,,0.01,WUHU216DAVISWMX,2013-03-26 23:25:00,
2013-03-26 19:30:00,41.9,26.9,29.80,WNW,291,0.0,2.0,55,0.00,,,0.01,WUHU216DAVISWMX,2013-03-26 23:30:00,
2013-03-26 19:35:00,41.6,27.1,29.80,WNW,292,0.0,2.0,56,0.00,,,0.01,WUHU216DAVISWMX,2013-03-26 23:35:00,
2013-03-26 19:40:00,41.4,27.3,29.80,WNW,292,0.0,1.0,57,0.00,,,0.01,WUHU216DAVISWMX,2013-03-26 23:40:00,
2013-03-26 19:45:00,41.1,27.1,29.80,WNW,291,0.0,1.0,57,0.00,,,0.01,WUHU216DAVISWMX,2013-03-26 23:45:00,
2013-03-26 19:50:00,41.0,27.0,29.81,WNW,292,0.0,0.0,57,0.00,,,0.01,WUHU216DAVISWMX,2013-03-26 23:50:00,
2013-03-26 19:55:00,40.8,27.2,29.81,WNW,292,0.0,0.0,58,0.00,,,0.01,WUHU216DAVISWMX,2013-03-26 23:55:00,
2013-03-26 20:00:00,40.6,27.4,29.81,WNW,291,0.0,0.0,59,0.00,,,0.01,WUHU216DAVISWMX,2013-03-27 00:00:00,
2013-03-26 20:05:00,40.3,27.2,29.81,WNW,292,0.0,0.0,59,0.00,,,0.01,WUHU216DAVISWMX,2013-03-27 00:05:00,
2013-03-26 20:10:00,40.1,27.4,29.82,WNW,292,0.0,0.0,60,0.00,,,0.01,WUHU216DAVISWMX,2013-03-27 00:10:00,
2013-03-26 20:15:00,39.8,27.5,29.82,WNW,292,0.0,0.0,61,0.00,,,0.01,WUHU216DAVISWMX,2013-03-27 00:15:00,
2013-03-26 20:20:00,39.6,27.3,29.82,WNW,291,0.0,0.0,61,0.00,,,0.01,WUHU216DAVISWMX,2013-03-27 00:20:00,
2013-03-26 20:25:00,39.4,27.1,29.82,WNW,292,0.0,0.0,61,0.00,,,0.01,WUHU216DAVISWMX,2013-03-27 00:25:00,
2013-03-26 20:30:00,39.2,27.3,29.82,WNW,292,0.0,0.0,62,0.00,,,0.01,WUHU216DAVISWMX,2013-03-27 00:30:00,
2013-03-26 20:35:00,39.0,27.2,29.82,WNW,292,0.0,1.0,62,0.00,,,0.01,WUHU216DAVISWMX,2013-03-27 00:35:00,
2013-03-26 20:40:00,38.8,27.4,29.82,WNW,292,0.0,1.0,63,0.00,,,0.01,WUHU216DAVISWMX,2013-03-27 00:40:00,
2013-03-26 20:45:00,38.6,27.2,29.82,WNW,291,0.0,0.0,63,0.00,,,0.01,WUHU216DAVISWMX,2013-03-27 00:45:00,
2013-03-26 20:50:00,38.4,27.4,29.82,WNW,291,0.0,0.0,64,0.00,,,0.01,WUHU216DAVISWMX,2013-03-27 00:50:00,
2013-03-26 20:55:00,38.2,27.2,29.83,WNW,291,0.0,0.0,64,0.00,,,0.01,WUHU216DAVISWMX,2013-03-27 00:55:00,
2013-03-26 21:00:00,38.0,27.4,29.83,WNW,291,0.0,0.0,65,0.00,,,0.01,WUHU216DAVISWMX,2013-03-27 01:00:00,
2013-03-26 21:05:00,37.7,27.1,29.83,WNW,292,0.0,0.0,65,0.00,,,0.01,WUHU216DAVISWMX,2013-03-27 01:05:00,
2013-03-26 21:10:00,37.5,27.6,29.83,WNW,292,0.0,0.0,67,0.00,,,0.01,WUHU216DAVISWMX,2013-03-27 01:10:00,
2013-03-26 21:15:00,37.2,27.0,29.83,WNW,291,0.0,0.0,66,0.00,,,0.01,WUHU216DAVISWMX,2013-03-27 01:15:00,
2013-03-26 21:21:00,37.0,27.1,29.83,WNW,291,0.0,0.0,67,0.00,,,0.01,WUHU216DAVISWMX,2013-03-27 01:21:00,
2013-03-26 21:26:00,36.8,26.9,29.83,WNW,292,0.0,0.0,67,0.00,,,0.01,WUHU216DAVISWMX,2013-03-27 01:26:00,
2013-03-26 21:31:00,36.6,26.8,29.83,WNW,292,0.0,0.0,67,0.00,,,0.01,WUHU216DAVISWMX,2013-03-27 01:31:00,
2013-03-26 21:36:00,36.4,26.9,29.84,WNW,291,0.0,0.0,68,0.00,,,0.01,WUHU216DAVISWMX,2013-03-27 01:36:00,
2013-03-26 21:41:00,36.3,26.8,29.84,WNW,291,0.0,0.0,68,0.00,,,0.01,WUHU216DAVISWMX,2013-03-27 01:41:00,
2013-03-26 21:46:00,36.0,26.5,29.84,WNW,291,0.0,0.0,68,0.00,,,0.01,WUHU216DAVISWMX,2013-03-27 01:46:00,
2013-03-26 21:51:00,35.8,26.7,29.84,WNW,292,0.0,0.0,69,0.00,,,0.01,WUHU216DAVISWMX,2013-03-27 01:51:00,
2013-03-26 21:56:00,35.6,26.8,29.84,WNW,291,0.0,0.0,70,0.00,,,0.01,WUHU216DAVISWMX,2013-03-27 01:56:00,
2013-03-26 22:01:00,35.5,26.8,29.84,WNW,292,0.0,0.0,70,0.00,,,0.01,WUHU216DAVISWMX,2013-03-27 02:01:00,
2013-03-26 22:06:00,35.4,26.7,29.84,WNW,292,0.0,0.0,70,0.00,,,0.01,WUHU216DAVISWMX,2013-03-27 02:06:00,
2013-03-26 22:11:00,35.2,26.5,29.84,WNW,291,0.0,0.0,70,0.00,,,0.01,WUHU216DAVISWMX,2013-03-27 02:11:00,
2013-03-26 22:16:00,35.0,26.6,29.84,WNW,292,0.0,0.0,71,0.00,,,0.01,WUHU216DAVISWMX,2013-03-27 02:16:00,
2013-03-26 22:21:00,34.8,26.4,29.84,WNW,291,0.0,0.0,71,0.00,,,0.01,WUHU216DAVISWMX,2013-03-27 02:21:00,
2013-03-26 22:26:00,34.6,25.9,29.84,WNW,292,0.0,0.0,70,0.00,,,0.01,WUHU216DAVISWMX,2013-03-27 02:26:00,
2013-03-26 22:31:00,34.5,25.4,29.84,WNW,292,0.0,0.0,69,0.00,,,0.01,WUHU216DAVISWMX,2013-03-27 02:31:00,
2013-03-26 22:36:00,34.3,25.9,29.85,WNW,292,0.0,0.0,71,0.00,,,0.01,WUHU216DAVISWMX,2013-03-27 02:36:00,
2013-03-26 22:41:00,34.1,25.7,29.85,WNW,291,0.0,0.0,71,0.00,,,0.01,WUHU216DAVISWMX,2013-03-27 02:41:00,
2013-03-26 22:46:00,33.9,25.9,29.84,WNW,291,0.0,0.0,72,0.00,,,0.01,WUHU216DAVISWMX,2013-03-27 02:46:00,
2013-03-26 22:51:00,33.7,25.7,29.84,WNW,291,0.0,0.0,72,0.00,,,0.01,WUHU216DAVISWMX,2013-03-27 02:51:00,
2013-03-26 22:56:00,33.6,25.9,29.85,WNW,291,0.0,0.0,73,0.00,,,0.01,WUHU216DAVISWMX,2013-03-27 02:56:00,
2013-03-26 23:01:00,33.4,26.1,29.85,WNW,292,0.0,0.0,74,0.00,,,0.01,WUHU216DAVISWMX,2013-03-27 03:01:00,
2013-03-26 23:06:00,33.2,25.9,29.85,WNW,291,0.0,0.0,74,0.00,,,0.01,WUHU216DAVISWMX,2013-03-27 03:06:00,
2013-03-26 23:11:00,33.1,25.8,29.85,WNW,292,0.0,0.0,74,0.00,,,0.01,WUHU216DAVISWMX,2013-03-27 03:11:00,
2013-03-26 23:16:00,33.0,25.7,29.85,WNW,291,0.0,0.0,74,0.00,,,0.01,WUHU216DAVISWMX,2013-03-27 03:16:00,
2013-03-26 23:21:00,32.8,25.8,29.85,WNW,291,0.0,0.0,75,0.00,,,0.01,WUHU216DAVISWMX,2013-03-27 03:21:00,
2013-03-26 23:26:00,32.8,25.8,29.85,WNW,292,0.0,0.0,75,0.00,,,0.01,WUHU216DAVISWMX,2013-03-27 03:26:00,
2013-03-26 23:32:00,32.6,25.9,29.85,WNW,292,0.0,0.0,76,0.00,,,0.01,WUHU216DAVISWMX,2013-03-27 03:32:00,
2013-03-26 23:37:00,32.5,25.8,29.85,WNW,292,0.0,0.0,76,0.00,,,0.01,WUHU216DAVISWMX,2013-03-27 03:37:00,
2013-03-26 23:42:00,32.5,25.8,29.85,WNW,292,0.0,0.0,76,0.00,,,0.01,WUHU216DAVISWMX,2013-03-27 03:42:00,
2013-03-26 23:47:00,32.3,25.6,29.85,WNW,292,0.0,0.0,76,0.00,,,0.01,WUHU216DAVISWMX,2013-03-27 03:47:00,
2013-03-26 23:52:00,32.2,25.5,29.85,WNW,292,0.0,0.0,76,0.00,,,0.01,WUHU216DAVISWMX,2013-03-27 03:52:00,
2013-03-26 23:57:00,32.0,25.6,29.85,WNW,292,0.0,0.0,77,0.00,,,0.01,WUHU216DAVISWMX,2013-03-27 03:57:00,